Weather History for Abingdon, VA

Change the Weather History Date:

Sunday, December 9, 2012

  Actual Average (KTRI) Record (KTRI)
Temperature  
Mean Temperature 58 °F 39 °F  
Max Temperature 69 °F 49 °F 73 °F (1966)
Min Temperature 47 °F 29 °F 8 °F (2006)
Degree Days  
Heating Degree Days 7 26  
Month to date heating degree days 224  
Since 1 July heating degree days 1110  
Cooling Degree Days 0 0  
Month to date cooling degree days 0  
Year to date cooling degree days 981  
Growing Degree Days 8 (Base 50)    
Moisture  
Dew Point 53 °F    
Average Humidity 86    
Maximum Humidity 100    
Minimum Humidity 59    
Precipitation  
Precipitation 0.11 in 0.12 in 1.72 in (1978)
Month to date precipitation 1.03  
Year to date precipitation 38.67  
Snow  
Snow 0.00 in 0.10 in - ()
Month to date snowfall 0.5  
Since 1 July snowfall 0.8  
Snow Depth -    
Sea Level Pressure  
Sea Level Pressure 30.02 in    
Wind  
Wind Speed 2 mph (South)    
Max Wind Speed 12 mph    
Max Gust Speed -    
Visibility 8 miles    
Events Rain    
T = Trace of Precipitation, MM = Missing Value Source: NWS Daily Summary

Daily Weather History Graph

Daily Weather History Graph

Search for Another Location

Airport:

Trip Planner

Search our weather history database for the weather conditions in past years. The results will help you decide how hot, cold, wet, or windy it might be!

Date:

Astronomy

Dec. 09, 2012 Rise Set
Actual Time 7:29 AM EST 5:12 PM EST
Civil Twilight 7:00 AM EST 5:40 PM EST
Nautical Twilight 6:28 AM EST 6:13 PM EST
Astronomical Twilight 5:56 AM EST 6:44 PM EST
Moon 3:05 AM EST (12/9) 2:14 PM EST (12/9)
Length of Visible Light 10h 40m
Length of Day
9h 42m
Waning Crescent, 19% of the Moon is Illuminated
Dec 9
Waning Crescent
Dec 13
New
Dec 20
First Quarter
Dec 28
Full
Jan 4
Last Quarter

Hourly Weather History & Observations

Time (EST) Temp. Dew Point Humidity Pressure Visibility Wind Dir Wind Speed Gust Speed Precip Events Conditions
12:15 AM 48.7 °F 48.7 °F 100% 30.04 in 4.0 mi Calm Calm - N/A   Clear
12:35 AM 47.8 °F 47.8 °F 100% 30.04 in 4.0 mi Calm Calm - N/A   Clear
12:55 AM 48.2 °F 48.2 °F 100% 30.04 in 5.0 mi Calm Calm - N/A   Mostly Cloudy
1:15 AM 50.0 °F 50.0 °F 100% 30.03 in 5.0 mi Calm Calm - N/A   Overcast
1:35 AM 50.2 °F 50.2 °F 100% 30.03 in 5.0 mi Calm Calm - N/A   Overcast
2:15 AM 50.7 °F 50.7 °F 100% 30.04 in 7.0 mi Calm Calm - N/A   Overcast
2:35 AM 51.8 °F 51.8 °F 100% 30.04 in 7.0 mi Calm Calm - N/A   Light Drizzle
2:55 AM 50.9 °F 50.9 °F 100% 30.05 in 7.0 mi Calm Calm - N/A   Overcast
3:15 AM 51.1 °F 51.1 °F 100% 30.05 in 7.0 mi Calm Calm - N/A   Overcast
3:35 AM 51.4 °F 51.4 °F 100% 30.05 in 7.0 mi Calm Calm - N/A   Overcast
3:55 AM 51.6 °F 51.6 °F 100% 30.05 in 7.0 mi Calm Calm - N/A Rain Light Rain
4:15 AM 51.8 °F 51.8 °F 100% 30.05 in 4.0 mi Calm Calm - 0.07 in Rain Light Rain
4:35 AM 51.1 °F 51.1 °F 100% 30.05 in 5.0 mi East 4.6 mph - 0.07 in   Overcast
4:55 AM 51.4 °F 51.4 °F 100% 30.05 in 5.0 mi SE 3.5 mph - 0.07 in   Overcast
5:15 AM 51.3 °F 51.3 °F 100% 30.06 in 3.0 mi ESE 3.5 mph - N/A   Overcast
5:35 AM 51.3 °F 51.3 °F 100% 30.06 in 7.0 mi Calm Calm - 0.01 in   Overcast
6:15 AM 51.4 °F 51.4 °F 100% 30.07 in 5.0 mi ESE 3.5 mph - 0.02 in Rain Rain
6:35 AM 51.8 °F 51.8 °F 100% 30.07 in 5.0 mi Calm Calm - 0.02 in Rain Rain
6:55 AM 51.8 °F 51.8 °F 100% 30.09 in 5.0 mi Calm Calm - 0.03 in   Light Drizzle
7:15 AM 52.0 °F 52.0 °F 100% 30.09 in 5.0 mi East 4.6 mph - N/A   Overcast
7:35 AM 51.8 °F 51.8 °F 100% 30.09 in 5.0 mi ESE 4.6 mph - N/A   Overcast
7:55 AM 51.8 °F 51.8 °F 100% 30.09 in 5.0 mi East 3.5 mph - N/A   Overcast
8:15 AM 51.4 °F 51.4 °F 100% 30.09 in 5.0 mi East 4.6 mph - N/A   Mostly Cloudy
8:35 AM 52.3 °F 52.3 °F 100% 30.08 in 10.0 mi East 4.6 mph - N/A   Scattered Clouds
8:55 AM 53.8 °F 53.2 °F 98% 30.09 in 10.0 mi ESE 8.1 mph - N/A   Mostly Cloudy
9:15 AM 54.7 °F 54.0 °F 97% 30.09 in 10.0 mi East 5.8 mph - N/A   Overcast
9:35 AM 56.7 °F 55.4 °F 96% 30.09 in 10.0 mi East 6.9 mph - N/A   Overcast
10:15 AM 59.2 °F 56.3 °F 90% 30.08 in 10.0 mi ESE 4.6 mph - N/A   Clear
10:35 AM 60.1 °F 56.8 °F 89% 30.08 in 10.0 mi East 5.8 mph - N/A   Clear
10:55 AM 62.1 °F 57.7 °F 86% 30.07 in 10.0 mi East 5.8 mph - N/A   Clear
11:15 AM 63.3 °F 57.7 °F 82% 30.07 in 10.0 mi Calm Calm - N/A   Mostly Cloudy
11:35 AM 64.2 °F 57.4 °F 78% 30.06 in 10.0 mi Calm Calm - N/A   Scattered Clouds
11:55 AM 63.5 °F 57.2 °F 80% 30.05 in 10.0 mi Calm Calm - N/A   Clear
12:15 PM 66.7 °F 56.8 °F 70% 30.03 in 10.0 mi WNW 3.5 mph - N/A   Clear
12:35 PM 68.0 °F 56.5 °F 67% 30.02 in 10.0 mi West 6.9 mph - N/A   Clear
12:55 PM 68.7 °F 56.5 °F 65% 30.01 in 10.0 mi West 5.8 mph - N/A   Clear
1:15 PM 69.4 °F 55.8 °F 62% 30.00 in 10.0 mi WSW 10.4 mph - N/A   Clear
1:35 PM 68.5 °F 54.7 °F 61% 29.99 in 10.0 mi WSW 11.5 mph - N/A   Clear
1:55 PM 68.4 °F 54.1 °F 60% 29.98 in 10.0 mi WSW 8.1 mph - N/A   Clear
2:15 PM 68.4 °F 54.7 °F 62% 29.98 in 10.0 mi West 8.1 mph - N/A   Clear
2:35 PM 68.0 °F 54.0 °F 61% 29.98 in 10.0 mi West 6.9 mph - N/A   Clear
2:55 PM 68.9 °F 55.2 °F 62% 29.98 in 10.0 mi West 5.8 mph - N/A   Clear
3:15 PM 69.3 °F 54.5 °F 59% 29.98 in 10.0 mi WNW 6.9 mph - N/A   Clear
3:35 PM 68.7 °F 54.5 °F 60% 29.97 in 10.0 mi West 8.1 mph - N/A   Clear
3:55 PM 68.4 °F 54.5 °F 61% 29.97 in 10.0 mi West 4.6 mph - N/A   Clear
4:15 PM 67.6 °F 54.5 °F 63% 29.97 in 10.0 mi West 3.5 mph - N/A   Clear
4:35 PM 67.1 °F 54.5 °F 64% 29.97 in 10.0 mi WSW 3.5 mph - N/A   Clear
4:55 PM 66.7 °F 54.5 °F 65% 29.98 in 10.0 mi Calm Calm - N/A   Mostly Cloudy
5:15 PM 66.2 °F 54.7 °F 66% 29.98 in 10.0 mi Calm Calm - N/A   Overcast
5:35 PM 65.5 °F 54.7 °F 68% 29.99 in 10.0 mi Calm Calm - N/A   Overcast
5:55 PM 65.1 °F 54.3 °F 68% 29.99 in 10.0 mi Calm Calm - N/A   Overcast
6:15 PM 64.4 °F 54.7 °F 71% 29.99 in 10.0 mi NW 3.5 mph - N/A   Overcast
6:35 PM 64.6 °F 54.9 °F 71% 29.99 in 10.0 mi Calm Calm - N/A   Overcast
7:15 PM 61.0 °F 54.9 °F 80% 29.98 in 10.0 mi Calm Calm - N/A   Scattered Clouds
7:35 PM 58.6 °F 55.2 °F 88% 29.98 in 10.0 mi Calm Calm - N/A   Clear
7:55 PM 58.1 °F 54.3 °F 87% 29.98 in 10.0 mi Calm Calm - N/A   Scattered Clouds
8:15 PM 58.3 °F 54.1 °F 86% 29.98 in 10.0 mi Calm Calm - N/A   Scattered Clouds
8:35 PM 56.1 °F 53.4 °F 91% 29.98 in 10.0 mi Calm Calm - N/A   Scattered Clouds
8:55 PM 56.3 °F 53.6 °F 91% 29.96 in 10.0 mi Calm Calm - N/A   Scattered Clouds
9:15 PM 55.0 °F 52.7 °F 92% 29.96 in 10.0 mi Calm Calm - N/A   Clear
9:35 PM 55.2 °F 53.1 °F 92% 29.95 in 10.0 mi Calm Calm - N/A   Clear
9:55 PM 54.9 °F 52.9 °F 93% 29.94 in 10.0 mi Calm Calm - N/A   Clear
10:15 PM 54.1 °F 52.9 °F 95% 29.94 in 10.0 mi Calm Calm - N/A   Clear
10:35 PM 53.4 °F 52.2 °F 95% 29.94 in 10.0 mi Calm Calm - N/A   Clear
10:55 PM 53.6 °F 52.3 °F 95% 29.93 in 10.0 mi Calm Calm - N/A   Clear
11:15 PM 52.9 °F 52.3 °F 98% 29.94 in 10.0 mi Calm Calm - N/A   Scattered Clouds
11:35 PM 51.6 °F 50.7 °F 97% 29.94 in 10.0 mi Calm Calm - N/A   Scattered Clouds
11:55 PM 52.5 °F 51.4 °F 96% 29.93 in 10.0 mi Calm Calm - N/A   Scattered Clouds